Weather History for Dansville, NY

Change the Weather History Date:

Monday, November 19, 2012

  Actual Average Record
Temperature  
Mean Temperature 40 °F -  
Max Temperature 53 °F 48 °F 73 °F (1958)
Min Temperature 28 °F 29 °F 12 °F (2008)
Degree Days  
Heating Degree Days 24    
Moisture  
Dew Point 31 °F    
Average Humidity 78    
Maximum Humidity 92    
Minimum Humidity 48    
Precipitation  
Precipitation 0.00 in - - ()
Sea Level Pressure  
Sea Level Pressure 30.43 in    
Wind  
Wind Speed 6 mph (SE)    
Max Wind Speed 12 mph    
Max Gust Speed -    
Visibility 10 miles    
Events      
Averages and records for this station are not official NWS values.
T = Trace of Precipitation, MM = Missing Value Source: NWS Daily Summary

Daily Weather History Graph

Daily Weather History Graph

Search for Another Location

Airport:

Trip Planner

Search our weather history database for the weather conditions in past years. The results will help you decide how hot, cold, wet, or windy it might be!

Date:

Astronomy

Nov. 19, 2012 Rise Set
Actual Time 7:07 AM EST 4:44 PM EST
Civil Twilight 6:37 AM EST 5:15 PM EST
Nautical Twilight 6:02 AM EST 5:49 PM EST
Astronomical Twilight 5:29 AM EST 6:23 PM EST
Moon 12:06 PM EST (11/19) 11:13 PM EST (11/19)
Length of Visible Light 10h 38m
Length of Day
9h 36m
Waxing Crescent, 40% of the Moon is Illuminated
Nov 19
Waxing Crescent
Nov 20
First Quarter
Nov 28
Full
Dec 6
Last Quarter
Dec 13
New

Hourly Weather History & Observations

Time (EST) Temp. Windchill Dew Point Humidity Pressure Visibility Wind Dir Wind Speed Gust Speed Precip Events Conditions
12:54 AM 32.0 °F 27.5 °F 28.0 °F 85% 30.54 in 10.0 mi South 4.6 mph - N/A   Clear
1:54 AM 30.9 °F 25.2 °F 27.0 °F 85% 30.53 in 10.0 mi SSE 5.8 mph - N/A   Clear
2:54 AM 28.9 °F 21.1 °F 26.1 °F 89% 30.53 in 10.0 mi ESE 8.1 mph - N/A   Clear
3:54 AM 28.9 °F 19.8 °F 26.1 °F 89% 30.53 in 10.0 mi SE 10.4 mph - N/A   Clear
4:54 AM 28.9 °F 20.4 °F 26.1 °F 89% 30.52 in 10.0 mi SE 9.2 mph - N/A   Clear
5:54 AM 28.9 °F 21.1 °F 26.1 °F 89% 30.52 in 10.0 mi SE 8.1 mph - N/A   Clear
6:54 AM 28.0 °F 20.8 °F 26.1 °F 92% 30.53 in 9.0 mi SE 6.9 mph - N/A   Clear
7:54 AM 28.9 °F 21.1 °F 26.1 °F 89% 30.52 in 7.0 mi SE 8.1 mph - N/A   Clear
8:54 AM 33.1 °F 26.9 °F 28.9 °F 85% 30.51 in 8.0 mi SE 6.9 mph - N/A   Clear
9:54 AM 39.9 °F 35.1 °F 33.1 °F 77% 30.49 in 10.0 mi SSE 6.9 mph - N/A   Clear
10:54 AM 43.0 °F 36.8 °F 34.0 °F 71% 30.47 in 10.0 mi SSE 11.5 mph - N/A   Clear
11:54 AM 46.0 °F 42.5 °F 35.1 °F 66% 30.44 in 10.0 mi SSE 6.9 mph - N/A   Clear
12:54 PM 48.0 °F - 35.1 °F 61% 30.40 in 10.0 mi SSE 4.6 mph - N/A   Clear
1:54 PM 51.1 °F - 33.1 °F 50% 30.37 in 10.0 mi Calm Calm - N/A   Clear
2:54 PM 53.1 °F - 34.0 °F 48% 30.36 in 10.0 mi Calm Calm - N/A   Clear
3:54 PM 48.0 °F - 35.1 °F 61% 30.34 in 10.0 mi NNW 4.6 mph - N/A   Clear
4:54 PM 45.0 °F - 35.1 °F 68% 30.34 in 10.0 mi Calm Calm - N/A   Clear
5:54 PM 39.9 °F - 34.0 °F 79% 30.35 in 10.0 mi Calm Calm - N/A   Clear
6:54 PM 37.0 °F - 32.0 °F 82% 30.35 in 10.0 mi Calm Calm - N/A   Clear
7:54 PM 35.1 °F 32.2 °F 30.9 °F 85% 30.34 in 10.0 mi SSE 3.5 mph - N/A   Clear
8:54 PM 35.1 °F 31.0 °F 30.9 °F 85% 30.33 in 10.0 mi South 4.6 mph - N/A   Clear
10:54 PM 32.0 °F 28.7 °F 28.9 °F 88% 30.30 in 10.0 mi SSE 3.5 mph - N/A   Clear
11:54 PM 34.0 °F 28.8 °F 30.0 °F 85% 30.30 in 10.0 mi SSE 5.8 mph - N/A   Clear